Location: Unspecified
(0.0000°N, 0.0000°E)
Time: 07:50:46
(UTC+00:00)

N. Korean satellite - Pass Details

Date: 24 June 2017
Orbit: 459 x 517 km, 97.2° (Epoch: 16 October)

Event Time Altitude Azimuth Distance (km) Brightness Sun altitude
Rises 19:29:06 0° 203° (SSW) 2,640 10.3 -19.8°
Reaches altitude 10° 19:32:20 10° 234° (SW) 1,744 9.7 -20.5°
Maximum altitude 19:33:54 12° 258° (WSW) 1,600 9.9 -20.9°
Drops below altitude 10° 19:35:27 10° 283° (WNW) 1,734 10.5 -21.2°
Sets 19:38:39 0° 314° (NW) 2,605 11.5 -21.9°
